Location: ???? ????
(38.5384°N, 23.9392°E)
Time: 21:09:51
(UTC+00:00)

Daily predictions for brighter satellites

Satellite Brightness Start Highest point End
(mag) Time Altitude Azimuth Time Altitude Azimuth Time Altitude Azimuth
Cosmos 2344 3.8 15:20:23 10° SSW 15:28:12 55° ESE 15:35:14 10° NE
CZ-4B R/B 4.3 15:27:54 10° SE 15:31:07 33° ENE 15:34:23 10° N
Cosmos 1500 2.9 15:29:39 10° N 15:33:11 76° E 15:36:42 10° S
Aureole 3 Rocket 4.2 15:30:10 10° NNW 15:33:57 39° W 15:37:01 10° SSW
Cosmos 407 Rocket 4.5 15:30:36 10° N 15:34:42 23° ENE 15:38:45 10° ESE
Hubble Space Telescope 4.0 15:38:46 10° SSW 15:38:53 10° SSW 15:39:01 10° SSW
Cosmos 2251 Rocket 4.3 15:37:35 10° N 15:42:18 30° ENE 15:46:59 10° SE
ISS -3.6 15:43:46 10° NW 15:47:04 54° NE 15:50:21 10° ESE
Lacrosse 5 2.1 15:42:53 10° SSW 15:47:47 53° SE 15:52:30 11° NE
Cosmos-2242 3.0 15:47:23 10° S 15:51:42 71° E 15:56:01 10° NNE
Cosmos 2151 4.4 15:51:01 10° NNW 15:55:02 42° W 15:59:03 10° SSW
Meteor 2-2 Rocket 4.4 15:49:30 10° S 15:55:02 54° E 16:00:43 10° NNE
USA 234 3.3 15:50:41 10° NE 15:57:15 89° SE 16:03:48 10° SW
COSMO-SKYMED 1 3.3 15:53:31 10° NNE 15:57:26 32° E 16:01:20 10° SSE
Lacrosse 4 Rocket 1.8 15:54:55 10° NNW 15:59:02 42° ENE 16:03:01 10° SE
Cosmos 2026 Rocket 4.3 15:54:38 10° SSE 16:00:28 44° E 16:06:24 10° NNE
Cosmos 2221 3.7 15:59:11 10° SE 16:02:23 21° E 16:04:18 16° NE
Cosmos 1818 3.6 15:57:00 10° SSW 16:02:25 87° ESE 16:07:54 10° NNE
Meteor 1-25 Rocket 4.3 15:57:03 10° N 16:02:34 51° ENE 16:07:57 10° SSE
APEX 3.2 15:59:48 10° SW 16:02:51 53° WNW 16:05:37 10° NNE
Cosmos 1023 Rocket 4.4 15:58:53 10° NNW 16:03:59 63° ENE 16:09:00 10° SSE
CZ-2C R/B 3.0 16:03:36 10° SW 16:04:43 12° SSW 16:05:49 10° S
Cosmos 1812 2.8 16:03:28 10° SSW 16:07:07 73° W 16:10:48 10° N
AQUARIUS 4.2 16:05:36 10° SSE 16:10:03 85° WSW 16:14:33 10° NNW
Cosmos 1844 Rocket 2.7 16:10:01 10° S 16:15:26 57° ESE 16:20:21 13° NNE
Cosmos 2263 Rocket 4.0 16:10:53 10° WSW 16:15:36 28° WNW 16:20:23 10° N
Cosmos 1092 Rocket 3.9 16:11:48 10° S 16:17:49 63° E 16:23:52 10° NNE
Nadezhda 4 Rocket 4.3 16:11:53 10° SSW 16:17:59 67° W 16:24:05 10° N
Cosmos 1420 Rocket 4.1 16:19:03 10° S 16:24:07 55° ESE 16:28:11 16° NNE
ADEOS 3.9 16:22:34 10° SE 16:27:25 41° ENE 16:32:18 10° N
[s.n.58448] 2.2 16:25:09 10° WNW 16:27:43 83° SSW 16:28:02 64° SE
USA 307 2.4 16:24:26 10° NW 16:28:17 77° NE 16:30:26 24° SE
Cosmos 1933 3.2 16:24:30 10° S 16:28:28 77° E 16:32:19 11° N
Cosmos 1766 Rocket 4.2 16:25:22 10° NNE 16:29:15 31° ENE 16:33:06 10° SE
[s.n.58449] 2.2 16:27:49 10° WNW 16:30:20 79° SSW 16:30:27 75° SSE
Meteor 1-20 Rocket 4.4 16:25:06 10° NNW 16:30:41 74° W 16:36:21 10° S
[s.n.58459] 2.3 16:28:54 10° WNW 16:31:29 77° SSW 16:31:40 71° SSE
Cosmos 1140 Rocket 3.6 16:26:24 10° NNW 16:31:34 76° WSW 16:36:40 10° S
Cosmos 1624 Rocket 4.0 16:26:46 10° S 16:31:53 58° ESE 16:35:19 21° NNE
[s.n.58458] 2.3 16:29:36 10° WNW 16:32:12 76° SSW 16:32:21 72° SSE
[s.n.58456] 2.3 16:30:26 10° WNW 16:33:02 75° SSW 16:33:09 72° S
[s.n.58447] 2.3 16:30:46 10° WNW 16:33:19 74° SSW 16:33:23 74° S
Meteor 1-5 Rocket 4.5 16:28:03 10° N 16:33:34 46° ENE 16:39:11 10° SSE
[s.n.58457] 2.4 16:31:12 10° WNW 16:33:47 74° SSW 16:33:52 73° S
[s.n.58455] 2.4 16:31:58 10° WNW 16:34:34 73° SSW 16:34:37 72° S
[s.n.58454] 2.4 16:32:44 10° WNW 16:35:20 72° SSW 16:35:21 72° SSW
[s.n.58453] 2.5 16:33:31 10° WNW 16:36:07 71° SSW 16:36:07 71° SSW
[s.n.58452] 2.5 16:34:14 10° WNW 16:36:47 69° SW 16:36:47 69° SW
[s.n.58451] 2.6 16:35:01 10° WNW 16:37:32 68° SW 16:37:32 68° SW
CBERS 1 LM4 rocket 4.2 16:32:54 10° SSE 16:37:44 82° ENE 16:42:29 10° NNW
[s.n.58450] 2.6 16:35:46 10° WNW 16:38:16 66° SW 16:38:16 66° SW
[s.n.58446] 2.8 16:38:04 10° WNW 16:40:29 61° SW 16:40:29 61° SW
[s.n.58445] 2.9 16:38:52 10° WNW 16:41:15 59° WSW 16:41:15 59° WSW
Cosmos 1603 3.6 16:36:08 10° NNW 16:41:51 87° ENE 16:47:28 10° SSE
[s.n.58444] 3.0 16:39:39 10° WNW 16:41:59 57° WSW 16:41:59 57° WSW
[s.n.58443] 3.0 16:40:23 10° WNW 16:42:42 55° WSW 16:42:42 55° WSW
[s.n.58442] 3.1 16:41:14 10° WNW 16:43:30 53° WSW 16:43:30 53° WSW
[s.n.58441] 3.2 16:42:02 10° WNW 16:44:16 51° WSW 16:44:16 51° WSW
[s.n.58440] 3.3 16:42:45 10° WNW 16:44:58 50° WSW 16:44:58 50° WSW
SKYMED 2 3.8 16:41:14 10° N 16:45:34 69° WNW 16:49:52 10° SSW
[s.n.58439] 3.3 16:43:34 10° WNW 16:45:45 48° WSW 16:45:45 48° WSW
[s.n.58437] 3.4 16:44:19 10° WNW 16:46:28 47° WSW 16:46:28 47° WSW
[s.n.58438] 3.5 16:45:05 10° WNW 16:47:13 45° WSW 16:47:13 45° WSW
SL-08 R/B 3.1 16:46:50 17° NNE 16:50:21 89° ESE 16:55:01 10° SSW
USA 306 4.2 16:49:17 10° W 16:50:22 18° WSW 16:50:22 18° WSW
CZ-4B R/B 4.3 16:50:23 10° S 16:55:22 53° W 17:00:14 10° NNW
ATLAS CENTAUR R/B 3.4 16:50:02 10° NW 16:55:23 79° SW 17:06:00 10° SE
EO 1 Delta rocket 4.5 16:49:19 10° SSE 16:56:26 68° ENE 17:01:59 10° N
Cosmos 1782 4.3 16:55:29 10° SW 16:59:03 35° WNW 17:02:40 10° NNW
SL-8 R/B 3.7 16:54:45 10° WNW 16:59:32 77° SW 17:00:59 44° SE
USA 305 2.8 16:56:12 10° NW 17:00:02 67° SW 17:00:25 61° S
Cosmos 676 Rocket 4.5 16:55:43 10° N 16:59:42 41° NNE 16:59:42 41° NNE
Cosmos 1515 4.1 17:00:05 10° S 17:02:50 51° SSW 17:02:50 51° SSW
ATLAS 2AS CENTAUR R/B 2.7 17:02:00 10° NNW 17:08:37 49° NE 17:09:09 48° ENE
Radarsat Rocket 4.4 17:03:51 10° S 17:09:34 61° WSW 17:15:29 10° NNW
CZ-4B DEB 4.1 17:05:57 10° SSE 17:11:22 61° ENE 17:16:51 10° N
ISS -0.8 17:21:32 10° W 17:23:28 15° SW 17:24:34 13° SSW
SME Rocket 4.0 17:18:48 10° SSE 17:23:54 89° ENE 17:31:50 10° NNW
SL-4 R/B 4.3 17:22:30 10° SSW 17:23:04 14° SSW 17:23:04 14° SSW
COSMOS 2455 2.7 17:20:30 10° SSW 17:26:29 87° ESE 17:27:03 75° NE
Lacrosse 5 3.3 17:26:38 10° W 17:30:59 28° NW 17:31:42 27° NNW
Cosmos 1954 Rocket 4.0 17:26:19 10° NNW 17:31:28 75° W 17:31:28 75° W
Lacrosse 4 Rocket 4.4 17:34:28 10° WNW 17:37:01 16° WSW 17:39:33 10° SW
Cosmos 2221 4.5 17:36:02 10° SW 17:39:36 26° WNW 17:41:02 21° NW
Cosmos 1553 Rocket 4.3 17:36:28 10° NNW 17:42:40 63° W 17:48:44 10° S
H-2A R/B 4.3 17:57:59 10° WSW 18:01:56 23° S 18:02:44 22° S
